星链-30394 (STARLINK-30394 )

导读

STARLINK-30394是美国于2023年9月9日发射的星链卫星,归属SpaceX星链互联网星座项目。星链项目旨在构建全球卫星互联网通信网络,为全球偏远地区等提供高速互联网接入服务。该卫星入轨后,将和其他星链卫星协同工作,进一步扩充星座网络覆盖范围与服务能力。

Basic Information
目录编号:
57810
目录名称:
STARLINK-30394
国际标识:
2023-138C
轨道中心:
EARTH
卫星名称:
星链-30394
卫星全名:
星链-30394 (STARLINK-30394 )
卫星状态:
在轨 (已飞行1013 天)
发射日期:
2023-09-09 UTC
国别 :
美国 (US)
星等 :
--
Orbit Information
数据来源 国际轨道数据
星历时间: 2026-06-18T08:29:16+0800
12小时前
查看轨道信息
半长轴: 6861.107km
偏心率: 0.0002622
轨道倾角: 43.004°
近地点辐角 282.948°
升交点赤经 27.483°
平近点角 77.108°
近地点: 481.171km
远地点: 484.769km
周期: 94.265分钟
每日圈数: 15.276066
Detailed Information
固有亮度:
5
最大亮度:
0.3
卫星平台:
Starlink v2.0 mini
覆盖范围:
全球
运营商:
太空探索技术公司
运营商所在国:
美国
制造商(研发单位):
太空探索技术公司
制造商所在国:
美国
使用方式:
暂无
Satellite Introduction
星链(Starlink)计划是由太空探索技术公司(SpaceX)提出的一个巨型低轨卫星互联网星座项目,计划在2019年至2024年间在太空搭建由约1.2万颗卫星组成的“星链”网络,其中1584颗将部署在地球上空550千米处的近地轨道,并从2020年开始工作。该卫星仍在工作。
2D Orbit Map
3D Orbit Map
Orbit Altitude Analysis Chart
Orbit Inclination Analysis Chart
Orbit Comprehensive Analysis Chart
View Comprehensive Chart